Starlink 30145

operational
NORAD ID: 57496 Int'l Des: 2023-113 Owner: SPXS Country: US Constellation: starlink
LEOCIRCULAR

Starlink 30145について

説明を読み込み中...

リアルタイム位置

3D地球を読み込み中...

次回通過

高度履歴

Altitude vs Time

uPlot chart will show altitude changes over time

軌道要素

1 57496U 23113B 25353.61840647 .00001119 00000-0 97888-4 0 9991
2 57496 43.0029 92.5727 0001363 271.1322 88.9364 15.02533475131507
Epoch: Dec 19, 2025 • Age: 20 hours

現在のステータス

高度 560.6 km
速度 7.59 km/s
衛星直下点 30.81°N, 19.2°W
打ち上げ日 Aug 7, 2023
運用期間 2.3 years
タイプ internet

技術仕様

分類 Payload
質量 730.00 kg
乾燥質量 700.00 kg
総質量 730.00 kg
長さ 0.30 m
直径 4.10 m
スパン 29.00 m
形状 Box + pan
製造者 SPXS
バスタイプ Starlink V2M
フェーズステータス In Orbit
所有者/国 SPXS/US

大規模コンステレーション

Loading constellations...